VIR1 OMDB-EGLL

Flight info

Callsign VIR1
Flight time 8h 27m
Altitude 31000
Route ANVIX L223 TARDI N629 BOTAM Y855 LAKLU/N0491F320 Q204 NALKI G652 TOKRA DCT ALROK DCT BOSOB DCT ITRUX Y511 PMA Z712 WEJ L677 DARAX/N0482F340 L677 GESON Q777 RASDA DCT OTHON DCT VAXOS DCT RDS UL609 MES DCT FSK/N0472F360 DCT DISOR DCT LONTA UL608 DOLEV DCT SABAD DCT KUBUD DCT SOTOV DCT XEBIX DCT USUDO DCT LIRSU DCT DENUT L608 COA/N0410F180 L179 SASKI L608 LOGAN
Aircraft A339/H-SADE1E2E3GHIJ3J5M1P2RWXY/LB2D1

Departure

Time 2026-04-24 12:03
Airport Dubai International Airport (OMDB)

Arrival

Time 2026-04-24 20:30
Airport London Heathrow Airport (EGLL)
Time Latitude Longitude Altitude Speed Heading
2026-04-24 11:04 25.24471 55.37136 28 ft 0 kts 211°
2026-04-24 11:07 25.24477 55.37140 28 ft 0 kts 212°
2026-04-24 11:09 25.24477 55.37139 28 ft 0 kts 212°
2026-04-24 11:49 25.24484 55.37145 28 ft 3 kts 212°
2026-04-24 11:49 25.24507 55.37161 27 ft 3 kts 210°
2026-04-24 11:49 25.24526 55.37173 26 ft 3 kts 209°
2026-04-24 11:49 25.24546 55.37185 25 ft 4 kts 172°
2026-04-24 11:50 25.24565 55.37180 26 ft 4 kts 128°
2026-04-24 11:50 25.24579 55.37157 26 ft 4 kts 122°
2026-04-24 11:50 25.24588 55.37141 25 ft 0 kts 122°
2026-04-24 11:52 25.24579 55.37158 28 ft 6 kts 122°
2026-04-24 11:53 25.24547 55.37216 28 ft 11 kts 121°
2026-04-24 11:53 25.24506 55.37289 28 ft 12 kts 122°
2026-04-24 11:53 25.24462 55.37368 28 ft 13 kts 121°
2026-04-24 11:53 25.24414 55.37453 28 ft 13 kts 121°
2026-04-24 11:54 25.24363 55.37543 28 ft 14 kts 122°
2026-04-24 11:54 25.24335 55.37591 28 ft 0 kts 122°
2026-04-24 11:57 25.24329 55.37603 28 ft 6 kts 122°
2026-04-24 11:57 25.24286 55.37679 28 ft 17 kts 121°
2026-04-24 11:58 25.24279 55.37775 27 ft 10 kts 45°
2026-04-24 11:58 25.24333 55.37817 28 ft 9 kts 36°
2026-04-24 11:58 25.24348 55.37829 28 ft 0 kts 34°
2026-04-24 11:58 25.24349 55.37830 28 ft 1 kts 34°
2026-04-24 11:59 25.24368 55.37843 28 ft 5 kts 34°
2026-04-24 11:59 25.24407 55.37873 28 ft 9 kts 34°
2026-04-24 11:59 25.24466 55.37917 28 ft 12 kts 34°
2026-04-24 11:59 25.24542 55.37975 28 ft 15 kts 33°
2026-04-24 12:00 25.24634 55.38043 28 ft 17 kts 32°
2026-04-24 12:00 25.24730 55.38100 28 ft 13 kts 17°
2026-04-24 12:00 25.24795 55.38048 28 ft 5 kts 303°
2026-04-24 12:00 25.24795 55.38047 28 ft 0 kts 303°
2026-04-24 12:02 25.24847 55.37952 28 ft 46 kts 302°
2026-04-24 12:02 25.25145 55.37423 28 ft 114 kts 301°
2026-04-24 12:02 25.25660 55.36496 28 ft 165 kts 301°
2026-04-24 12:02 25.26317 55.35300 212 ft 192 kts 302°
2026-04-24 12:03 25.27003 55.34032 803 ft 194 kts 305°
2026-04-24 12:03 25.27727 55.32740 1384 ft 201 kts 305°
2026-04-24 12:03 25.28508 55.31423 2017 ft 208 kts 306°
2026-04-24 12:03 25.29310 55.30061 2553 ft 213 kts 297°
2026-04-24 12:04 25.29449 55.28464 3036 ft 214 kts 253°
2026-04-24 12:04 25.28672 55.27024 3352 ft 227 kts 228°
2026-04-24 12:04 25.27550 55.25672 3616 ft 253 kts 229°
2026-04-24 12:04 25.26354 55.24157 3858 ft 271 kts 230°
2026-04-24 12:05 25.25294 55.22368 3953 ft 287 kts 248°
2026-04-24 12:05 25.24702 55.20186 3982 ft 307 kts 255°
2026-04-24 12:05 25.23803 55.17980 3989 ft 326 kts 235°
2026-04-24 12:05 25.22172 55.16287 4583 ft 325 kts 212°
2026-04-24 12:06 25.20108 55.15447 5603 ft 312 kts 191°
2026-04-24 12:06 25.17994 55.15547 6580 ft 300 kts 167°
2026-04-24 12:06 25.16155 55.16523 7450 ft 294 kts 145°
2026-04-24 12:06 25.14790 55.18212 7971 ft 300 kts 121°
2026-04-24 12:07 25.14130 55.20399 8464 ft 305 kts 97°
2026-04-24 12:07 25.14073 55.22755 8908 ft 308 kts 91°
2026-04-24 12:07 25.13900 55.25111 9314 ft 311 kts 101°
2026-04-24 12:07 25.13350 55.27426 9766 ft 311 kts 111°
2026-04-24 12:08 25.12522 55.29629 10231 ft 310 kts 117°
2026-04-24 12:08 25.11551 55.31762 10683 ft 311 kts 120°
2026-04-24 12:08 25.10545 55.33878 11112 ft 313 kts 117°
2026-04-24 12:08 25.09625 55.36059 11585 ft 315 kts 117°
2026-04-24 12:09 25.08702 55.38274 12059 ft 317 kts 117°
2026-04-24 12:09 25.07782 55.40489 12549 ft 318 kts 117°
2026-04-24 12:09 25.06863 55.42717 12952 ft 323 kts 116°
2026-04-24 12:09 25.05942 55.45056 13081 ft 337 kts 115°
2026-04-24 12:10 25.05027 55.47453 13214 ft 350 kts 115°
2026-04-24 12:10 25.04068 55.49979 13345 ft 363 kts 115°
2026-04-24 12:10 25.03074 55.52587 13566 ft 371 kts 115°
2026-04-24 12:11 25.00781 55.57705 14321 ft 374 kts 123°
2026-04-24 12:11 24.99424 55.60175 14671 ft 377 kts 123°
2026-04-24 12:11 24.98069 55.62659 15045 ft 380 kts 123°
2026-04-24 12:11 24.96706 55.65174 15401 ft 383 kts 122°
2026-04-24 12:12 24.95334 55.67710 15747 ft 386 kts 122°
2026-04-24 12:12 24.93427 55.71034 16189 ft 389 kts 128°
2026-04-24 12:12 24.92419 55.72537 16423 ft 391 kts 128°
2026-04-24 12:12 24.90760 55.75015 16781 ft 394 kts 128°
2026-04-24 12:13 24.89137 55.77454 17130 ft 397 kts 128°
2026-04-24 12:13 24.87503 55.79916 17477 ft 400 kts 128°
2026-04-24 12:13 24.85857 55.82400 17827 ft 403 kts 128°
2026-04-24 12:13 24.84192 55.84911 18183 ft 406 kts 128°
2026-04-24 12:14 24.82516 55.87417 18510 ft 408 kts 128°
2026-04-24 12:14 24.80818 55.89922 18875 ft 409 kts 128°
2026-04-24 12:14 24.79115 55.92426 19196 ft 411 kts 129°
2026-04-24 12:14 24.77237 55.94805 19533 ft 410 kts 137°
2026-04-24 12:15 24.75147 55.96941 19869 ft 412 kts 140°
2026-04-24 12:15 24.73038 55.99085 20215 ft 413 kts 140°
2026-04-24 12:15 24.70933 56.01241 20583 ft 414 kts 139°
2026-04-24 12:15 24.68816 56.03415 20927 ft 416 kts 139°
2026-04-24 12:16 24.66696 56.05596 21289 ft 417 kts 139°
2026-04-24 12:16 24.64601 56.07756 21632 ft 419 kts 139°
2026-04-24 12:16 24.62466 56.09956 21981 ft 421 kts 139°
2026-04-24 12:16 24.60326 56.12160 22306 ft 423 kts 139°
2026-04-24 12:17 24.58167 56.14381 22690 ft 425 kts 139°
2026-04-24 12:17 24.56102 56.16712 23013 ft 429 kts 132°
2026-04-24 12:17 24.54165 56.19211 23372 ft 431 kts 132°
2026-04-24 12:17 24.52213 56.21716 23672 ft 433 kts 132°
2026-04-24 12:18 24.50244 56.24230 23970 ft 435 kts 133°
2026-04-24 12:18 24.48259 56.26757 24265 ft 437 kts 133°
2026-04-24 12:18 24.46268 56.29289 24539 ft 439 kts 132°
2026-04-24 12:18 24.44273 56.31826 24818 ft 441 kts 132°
2026-04-24 12:19 24.42262 56.34382 25089 ft 443 kts 132°
2026-04-24 12:19 24.40239 56.36951 25371 ft 446 kts 132°
2026-04-24 12:19 24.38210 56.39527 25646 ft 448 kts 132°
2026-04-24 12:19 24.36166 56.42120 25915 ft 450 kts 132°
2026-04-24 12:20 24.34110 56.44728 26189 ft 452 kts 132°
2026-04-24 12:20 24.32049 56.47340 26453 ft 454 kts 132°
2026-04-24 12:20 24.29987 56.49970 26725 ft 456 kts 131°
2026-04-24 12:20 24.28084 56.52768 26981 ft 459 kts 127°
2026-04-24 12:21 24.26211 56.55618 27272 ft 461 kts 127°
2026-04-24 12:21 24.24328 56.58468 27546 ft 463 kts 127°
2026-04-24 12:21 24.22430 56.61331 27814 ft 465 kts 127°
2026-04-24 12:21 24.20522 56.64203 28096 ft 467 kts 127°
2026-04-24 12:22 24.18605 56.67088 28369 ft 469 kts 127°
2026-04-24 12:22 24.16677 56.69986 28627 ft 471 kts 127°
2026-04-24 12:22 24.14743 56.72890 28911 ft 473 kts 127°
2026-04-24 12:22 24.12827 56.75767 29183 ft 475 kts 127°
2026-04-24 12:23 24.10872 56.78700 29428 ft 477 kts 127°
2026-04-24 12:23 24.08912 56.81642 29698 ft 479 kts 127°
2026-04-24 12:23 24.06933 56.84586 29950 ft 481 kts 129°
2026-04-24 12:23 24.04638 56.87239 30143 ft 481 kts 141°
2026-04-24 12:24 24.01918 56.89354 30367 ft 479 kts 153°
2026-04-24 12:24 23.98886 56.90852 30572 ft 478 kts 164°
2026-04-24 12:24 23.95666 56.91736 30803 ft 477 kts 172°
2026-04-24 12:25 23.89062 56.93087 30858 ft 491 kts 171°
2026-04-24 12:25 23.82359 56.94721 30856 ft 493 kts 169°
2026-04-24 12:26 23.75690 56.96500 30866 ft 493 kts 168°
2026-04-24 12:26 23.69026 56.98293 30873 ft 493 kts 168°
2026-04-24 12:27 23.62357 57.00080 30881 ft 494 kts 168°
2026-04-24 12:27 23.55722 57.01857 30887 ft 493 kts 168°
2026-04-24 12:28 23.49056 57.03637 30892 ft 494 kts 168°
2026-04-24 12:28 23.42388 57.05410 30900 ft 493 kts 169°
2026-04-24 12:29 23.35605 57.05977 30901 ft 488 kts 186°
2026-04-24 12:29 23.28966 57.04662 30906 ft 485 kts 195°
2026-04-24 12:30 23.22367 57.03081 30904 ft 485 kts 194°
2026-04-24 12:30 23.15768 57.01529 30895 ft 486 kts 194°
2026-04-24 12:30 23.12453 57.00750 31084 ft 487 kts 194°
2026-04-24 12:31 23.09175 56.99980 31287 ft 489 kts 194°
2026-04-24 12:31 23.05848 56.99198 31441 ft 490 kts 194°
2026-04-24 12:31 23.02501 56.98413 31590 ft 491 kts 194°
2026-04-24 12:31 22.99173 56.97632 31716 ft 493 kts 194°
2026-04-24 12:32 22.95821 56.96846 31858 ft 493 kts 194°
2026-04-24 12:32 22.89174 56.95263 31874 ft 491 kts 198°
2026-04-24 12:32 22.85983 56.93977 31875 ft 488 kts 209°
2026-04-24 12:33 22.83099 56.92063 31874 ft 485 kts 220°
2026-04-24 12:33 22.80642 56.89615 31868 ft 480 kts 231°
2026-04-24 12:33 22.78672 56.86695 31869 ft 477 kts 242°
2026-04-24 12:34 22.75760 56.80252 31856 ft 475 kts 246°
2026-04-24 12:34 22.72863 56.73811 31848 ft 475 kts 245°
2026-04-24 12:35 22.69859 56.67496 31840 ft 475 kts 244°
2026-04-24 12:35 22.66800 56.61158 31833 ft 474 kts 244°
2026-04-24 12:36 22.63742 56.54829 31828 ft 474 kts 244°
2026-04-24 12:36 22.60689 56.48514 31820 ft 473 kts 244°
2026-04-24 12:37 22.57634 56.42204 31815 ft 473 kts 244°
2026-04-24 12:37 22.54580 56.35902 31814 ft 473 kts 244°
2026-04-24 12:38 22.51530 56.29610 31809 ft 472 kts 244°
2026-04-24 12:38 22.48478 56.23316 31807 ft 472 kts 244°
2026-04-24 12:39 22.42376 56.10761 31802 ft 471 kts 244°
2026-04-24 12:40 22.39323 56.04492 31798 ft 471 kts 244°
2026-04-24 12:40 22.36286 55.98270 31799 ft 471 kts 244°
2026-04-24 12:41 22.33216 55.92023 31794 ft 471 kts 244°
2026-04-24 12:41 22.30141 55.85773 31792 ft 470 kts 244°
2026-04-24 12:42 22.27071 55.79536 31790 ft 470 kts 244°
2026-04-24 12:42 22.24002 55.73300 31788 ft 470 kts 244°
2026-04-24 12:43 22.20942 55.67062 31785 ft 470 kts 244°
2026-04-24 12:43 22.17909 55.60865 31783 ft 469 kts 245°
2026-04-24 12:44 22.15744 55.54277 31780 ft 466 kts 258°
2026-04-24 12:44 22.14948 55.47350 31778 ft 465 kts 266°
2026-04-24 12:45 22.14398 55.40406 31778 ft 464 kts 265°
2026-04-24 12:45 22.13825 55.33453 31778 ft 464 kts 265°
2026-04-24 12:46 22.13253 55.26553 31777 ft 464 kts 265°
2026-04-24 12:46 22.12677 55.19616 31780 ft 464 kts 265°
2026-04-24 12:47 22.12098 55.12682 31776 ft 464 kts 265°
2026-04-24 12:47 22.11516 55.05756 31772 ft 464 kts 265°
2026-04-24 12:48 22.10931 54.98826 31771 ft 464 kts 265°
2026-04-24 12:48 22.10344 54.91901 31772 ft 464 kts 265°
2026-04-24 12:49 22.09853 54.86144 31771 ft 464 kts 265°
2026-04-24 12:49 22.09260 54.79217 31768 ft 464 kts 265°
2026-04-24 12:50 22.08666 54.72295 31769 ft 464 kts 265°
2026-04-24 12:50 22.08066 54.65368 31766 ft 464 kts 265°
2026-04-24 12:51 22.07466 54.58451 31771 ft 464 kts 265°
2026-04-24 12:51 22.06860 54.51516 31771 ft 464 kts 265°
2026-04-24 12:52 22.06253 54.44593 31776 ft 464 kts 265°
2026-04-24 12:52 22.05643 54.37674 31775 ft 463 kts 265°
2026-04-24 12:53 22.05035 54.30816 31771 ft 463 kts 265°
2026-04-24 12:53 22.04415 54.23852 31774 ft 463 kts 265°
2026-04-24 12:54 22.03799 54.16961 31777 ft 462 kts 265°
2026-04-24 12:54 22.03183 54.10116 31776 ft 461 kts 265°
2026-04-24 12:55 22.02563 54.03241 31776 ft 461 kts 265°
2026-04-24 12:55 22.01940 53.96372 31770 ft 460 kts 265°
2026-04-24 12:56 22.01313 53.89502 31774 ft 460 kts 265°
2026-04-24 12:56 22.00684 53.82638 31770 ft 460 kts 265°
2026-04-24 12:57 22.00054 53.75788 31771 ft 460 kts 265°
2026-04-24 12:57 21.99420 53.68931 31767 ft 460 kts 265°
2026-04-24 12:58 21.98784 53.62081 31768 ft 460 kts 265°
2026-04-24 12:58 21.98144 53.55225 31765 ft 460 kts 265°
2026-04-24 12:59 21.97501 53.48365 31769 ft 460 kts 265°
2026-04-24 12:59 21.96855 53.41496 31773 ft 461 kts 265°
2026-04-24 13:00 21.96206 53.34628 31769 ft 461 kts 265°
2026-04-24 13:00 21.95558 53.27803 31773 ft 461 kts 265°
2026-04-24 13:01 21.94902 53.20928 31774 ft 461 kts 265°
2026-04-24 13:01 21.94244 53.14061 31774 ft 461 kts 265°
2026-04-24 13:02 21.93580 53.07170 31775 ft 461 kts 264°
2026-04-24 13:02 21.92915 53.00288 31775 ft 461 kts 264°
2026-04-24 13:03 21.92253 52.93459 31775 ft 462 kts 264°
2026-04-24 13:03 21.91582 52.86580 31774 ft 462 kts 264°
2026-04-24 13:04 21.90907 52.79686 31776 ft 462 kts 264°
2026-04-24 13:04 21.90313 52.72809 31774 ft 461 kts 269°
2026-04-24 13:05 21.90805 52.65978 31774 ft 461 kts 280°
2026-04-24 13:05 21.92080 52.59215 31774 ft 461 kts 281°
2026-04-24 13:06 21.93327 52.52434 31776 ft 461 kts 281°
2026-04-24 13:06 21.94569 52.45661 31776 ft 461 kts 281°
2026-04-24 13:07 21.95810 52.38887 31781 ft 461 kts 281°
2026-04-24 13:07 21.97047 52.32116 31778 ft 460 kts 281°
2026-04-24 13:08 21.98271 52.25399 31777 ft 460 kts 281°
2026-04-24 13:08 21.99498 52.18646 31776 ft 460 kts 281°
2026-04-24 13:09 22.01339 52.08487 31779 ft 460 kts 281°
2026-04-24 13:09 22.02563 52.01710 31776 ft 459 kts 280°
2026-04-24 13:10 22.03774 51.94991 31776 ft 459 kts 280°
2026-04-24 13:10 22.04988 51.88235 31780 ft 459 kts 280°
2026-04-24 13:11 22.06198 51.81487 31778 ft 458 kts 280°
2026-04-24 13:11 22.07405 51.74740 31780 ft 458 kts 280°
2026-04-24 13:12 22.08608 51.68001 31781 ft 457 kts 280°
2026-04-24 13:12 22.09805 51.61272 31782 ft 457 kts 280°
2026-04-24 13:13 22.11000 51.54544 31783 ft 456 kts 280°
2026-04-24 13:13 22.12190 51.47826 31781 ft 456 kts 280°
2026-04-24 13:14 22.13377 51.41107 31780 ft 456 kts 280°
2026-04-24 13:14 22.14561 51.34386 31781 ft 456 kts 280°
2026-04-24 13:15 22.15741 51.27675 31784 ft 455 kts 279°
2026-04-24 13:15 22.16918 51.20964 31787 ft 455 kts 279°
2026-04-24 13:16 22.18094 51.14240 31787 ft 455 kts 279°
2026-04-24 13:16 22.19265 51.07527 31786 ft 455 kts 279°
2026-04-24 13:17 22.20433 51.00818 31788 ft 455 kts 279°
2026-04-24 13:17 22.21592 50.94143 31788 ft 455 kts 279°
2026-04-24 13:18 22.22753 50.87434 31790 ft 455 kts 279°
2026-04-24 13:18 22.23911 50.80731 31790 ft 454 kts 279°
2026-04-24 13:19 22.25067 50.74022 31784 ft 455 kts 279°
2026-04-24 13:19 22.26222 50.67302 31790 ft 455 kts 279°
2026-04-24 13:20 22.27373 50.60586 31788 ft 455 kts 279°
2026-04-24 13:20 22.28522 50.53863 31783 ft 455 kts 279°
2026-04-24 13:21 22.29670 50.47133 31789 ft 456 kts 279°
2026-04-24 13:21 22.30816 50.40392 31793 ft 456 kts 279°
2026-04-24 13:22 22.31952 50.33698 31791 ft 456 kts 279°
2026-04-24 13:22 22.33094 50.26952 31801 ft 456 kts 279°
2026-04-24 13:23 22.34234 50.20199 31800 ft 456 kts 279°
2026-04-24 13:23 22.35369 50.13457 31802 ft 456 kts 279°
2026-04-24 13:24 22.36500 50.06722 31800 ft 456 kts 279°
2026-04-24 13:24 22.37627 49.99990 31801 ft 456 kts 279°
2026-04-24 13:25 22.38752 49.93250 31796 ft 455 kts 279°
2026-04-24 13:25 22.39873 49.86519 31800 ft 456 kts 279°
2026-04-24 13:26 22.40994 49.79777 31800 ft 456 kts 279°
2026-04-24 13:26 22.42105 49.73068 31795 ft 456 kts 279°
2026-04-24 13:27 22.43221 49.66318 31797 ft 456 kts 279°
2026-04-24 13:27 22.44333 49.59571 31800 ft 456 kts 279°
2026-04-24 13:28 22.45443 49.52815 31803 ft 456 kts 279°
2026-04-24 13:28 22.46551 49.46059 31802 ft 456 kts 278°
2026-04-24 13:29 22.47656 49.39300 31805 ft 456 kts 278°
2026-04-24 13:29 22.48751 49.32589 31809 ft 456 kts 278°
2026-04-24 13:30 22.49848 49.25840 31807 ft 456 kts 278°
2026-04-24 13:30 22.50943 49.19094 31805 ft 456 kts 278°
2026-04-24 13:31 22.52034 49.12345 31806 ft 455 kts 278°
2026-04-24 13:31 22.53125 49.05579 31807 ft 455 kts 278°
2026-04-24 13:32 22.54211 48.98830 31809 ft 455 kts 278°
2026-04-24 13:32 22.55284 48.92139 31807 ft 454 kts 278°
2026-04-24 13:33 22.56362 48.85402 31813 ft 454 kts 278°
2026-04-24 13:33 22.57433 48.78684 31809 ft 453 kts 278°
2026-04-24 13:34 22.58503 48.71956 31811 ft 453 kts 278°
2026-04-24 13:34 22.59569 48.65237 31812 ft 453 kts 278°
2026-04-24 13:35 22.60630 48.58530 31810 ft 452 kts 278°
2026-04-24 13:35 22.61681 48.51861 31808 ft 452 kts 278°
2026-04-24 13:36 22.62737 48.45151 31806 ft 452 kts 277°
2026-04-24 13:36 22.63791 48.38433 31809 ft 452 kts 277°
2026-04-24 13:37 22.64652 48.32929 31813 ft 452 kts 277°
2026-04-24 13:37 22.65873 48.25103 31815 ft 452 kts 277°
2026-04-24 13:38 22.66917 48.18400 31817 ft 452 kts 277°
2026-04-24 13:38 22.67789 48.12792 31816 ft 451 kts 277°
2026-04-24 13:39 22.68830 48.06084 31819 ft 451 kts 277°
2026-04-24 13:39 22.69536 47.99369 31815 ft 449 kts 273°
2026-04-24 13:40 22.70097 47.92675 31814 ft 449 kts 274°
2026-04-24 13:40 22.70674 47.85907 31813 ft 449 kts 274°
2026-04-24 13:41 22.71235 47.79202 31818 ft 449 kts 273°
2026-04-24 13:41 22.71792 47.72475 31816 ft 449 kts 273°
2026-04-24 13:42 22.72346 47.65754 31818 ft 450 kts 273°
2026-04-24 13:42 22.72900 47.58994 31819 ft 450 kts 273°
2026-04-24 13:43 22.73451 47.52248 31823 ft 451 kts 273°
2026-04-24 13:43 22.73998 47.45497 31821 ft 451 kts 273°
2026-04-24 13:44 22.74546 47.38713 31828 ft 452 kts 273°
2026-04-24 13:44 22.75090 47.31937 31831 ft 452 kts 273°
2026-04-24 13:45 22.75631 47.25159 31836 ft 452 kts 273°
2026-04-24 13:45 22.76170 47.18382 31839 ft 452 kts 273°
2026-04-24 13:46 22.76709 47.11585 31839 ft 453 kts 273°
2026-04-24 13:46 22.77251 47.04769 31843 ft 453 kts 273°
2026-04-24 13:47 22.77786 46.98002 31842 ft 453 kts 273°
2026-04-24 13:47 22.78319 46.91200 31843 ft 453 kts 273°
2026-04-24 13:48 22.78851 46.84383 31845 ft 453 kts 273°
2026-04-24 13:48 22.79379 46.77584 31848 ft 454 kts 273°
2026-04-24 13:49 22.79904 46.70779 31849 ft 454 kts 273°
2026-04-24 13:49 22.80428 46.63951 31856 ft 454 kts 273°
2026-04-24 13:50 22.80947 46.57156 31856 ft 454 kts 273°
2026-04-24 13:50 22.81466 46.50317 31853 ft 454 kts 273°
2026-04-24 13:51 22.81979 46.43515 31854 ft 454 kts 272°
2026-04-24 13:51 22.82487 46.36738 31859 ft 453 kts 272°
2026-04-24 13:52 22.82991 46.29920 31849 ft 453 kts 272°
2026-04-24 13:52 22.83494 46.23102 31853 ft 453 kts 272°
2026-04-24 13:53 22.83993 46.16305 31844 ft 453 kts 272°
2026-04-24 13:53 22.84488 46.09505 31851 ft 452 kts 272°
2026-04-24 13:54 22.84978 46.02753 31844 ft 452 kts 272°
2026-04-24 13:54 22.85468 45.95955 31839 ft 451 kts 272°
2026-04-24 13:55 22.85955 45.89154 31832 ft 450 kts 272°
2026-04-24 13:55 22.86435 45.82412 31829 ft 450 kts 272°
2026-04-24 13:56 22.86912 45.75671 31824 ft 449 kts 272°
2026-04-24 13:56 22.87388 45.68905 31828 ft 448 kts 272°
2026-04-24 13:57 22.87859 45.62179 31830 ft 447 kts 272°
2026-04-24 13:57 22.88324 45.55474 31829 ft 447 kts 272°
2026-04-24 13:58 22.88788 45.48771 31822 ft 446 kts 272°
2026-04-24 13:58 22.89246 45.42090 31823 ft 445 kts 272°
2026-04-24 13:59 22.89703 45.35370 31828 ft 445 kts 272°
2026-04-24 13:59 22.90156 45.28716 31829 ft 444 kts 272°
2026-04-24 14:00 22.90604 45.22060 31831 ft 443 kts 271°
2026-04-24 14:00 22.91052 45.15374 31827 ft 442 kts 271°
2026-04-24 14:01 22.91492 45.08762 31828 ft 441 kts 271°
2026-04-24 14:01 22.91931 45.02120 31823 ft 440 kts 271°
2026-04-24 14:02 22.92363 44.95520 31826 ft 439 kts 271°
2026-04-24 14:02 22.92792 44.88930 31828 ft 439 kts 271°
2026-04-24 14:03 22.93221 44.82289 31820 ft 439 kts 271°
2026-04-24 14:03 22.93644 44.75720 31822 ft 439 kts 271°
2026-04-24 14:04 22.94128 44.69118 31824 ft 441 kts 275°
2026-04-24 14:04 22.95548 44.62602 31826 ft 447 kts 285°
2026-04-24 14:05 22.97557 44.56222 31818 ft 447 kts 284°
2026-04-24 14:05 22.99526 44.49840 31832 ft 447 kts 284°
2026-04-24 14:06 23.01500 44.43424 31832 ft 447 kts 284°
2026-04-24 14:06 23.03471 44.37013 31819 ft 447 kts 284°
2026-04-24 14:07 23.05427 44.30645 31824 ft 447 kts 284°
2026-04-24 14:07 23.07399 44.24214 31838 ft 447 kts 284°
2026-04-24 14:08 23.09361 44.17803 31829 ft 447 kts 284°
2026-04-24 14:08 23.11311 44.11423 31825 ft 447 kts 284°
2026-04-24 14:09 23.13271 44.05000 31827 ft 447 kts 284°
2026-04-24 14:09 23.15221 43.98598 31832 ft 447 kts 284°
2026-04-24 14:10 23.17166 43.92203 31839 ft 447 kts 284°
2026-04-24 14:10 23.19112 43.85795 31835 ft 447 kts 284°
2026-04-24 14:11 23.21056 43.79381 31838 ft 447 kts 284°
2026-04-24 14:12 23.23970 43.69751 31847 ft 447 kts 284°
2026-04-24 14:12 23.25906 43.63340 31845 ft 447 kts 284°
2026-04-24 14:13 23.27837 43.56936 31856 ft 446 kts 284°
2026-04-24 14:13 23.29767 43.50522 31862 ft 446 kts 284°
2026-04-24 14:14 23.31699 43.44092 31863 ft 445 kts 284°
2026-04-24 14:14 23.34574 43.34507 31862 ft 444 kts 284°
2026-04-24 14:15 23.36482 43.28134 31870 ft 443 kts 284°
2026-04-24 14:15 23.38385 43.21761 31871 ft 443 kts 284°
2026-04-24 14:16 23.40288 43.15380 31867 ft 442 kts 284°
2026-04-24 14:17 23.43124 43.05834 31879 ft 442 kts 284°
2026-04-24 14:17 23.45955 42.96274 31886 ft 442 kts 284°
2026-04-24 14:18 23.47834 42.89916 31883 ft 442 kts 284°
2026-04-24 14:18 23.49712 42.83551 31890 ft 442 kts 284°
2026-04-24 14:19 23.51594 42.77162 31903 ft 443 kts 284°
2026-04-24 14:19 23.53482 42.70749 31906 ft 444 kts 284°
2026-04-24 14:20 23.55367 42.64350 31911 ft 444 kts 284°
2026-04-24 14:20 23.57253 42.57932 31921 ft 445 kts 284°
2026-04-24 14:21 23.59142 42.51495 31924 ft 446 kts 284°
2026-04-24 14:21 23.61022 42.45079 31927 ft 448 kts 283°
2026-04-24 14:22 23.62928 42.38561 31942 ft 449 kts 283°
2026-04-24 14:23 23.65773 42.28810 31952 ft 452 kts 283°
2026-04-24 14:23 23.67681 42.22239 31959 ft 453 kts 283°
2026-04-24 14:24 23.69568 42.15722 31968 ft 455 kts 283°
2026-04-24 14:24 23.71480 42.09110 31958 ft 456 kts 283°
2026-04-24 14:25 23.73073 42.03595 31958 ft 456 kts 282°
2026-04-24 14:25 23.75285 41.95926 31957 ft 456 kts 282°
2026-04-24 14:26 23.77191 41.89334 31955 ft 456 kts 282°
2026-04-24 14:26 23.78786 41.83811 31963 ft 456 kts 282°
2026-04-24 14:27 23.80999 41.76128 31966 ft 455 kts 282°
2026-04-24 14:27 23.82888 41.69550 31959 ft 454 kts 282°
2026-04-24 14:28 23.84462 41.64056 31951 ft 453 kts 282°
2026-04-24 14:28 23.86339 41.57498 31950 ft 452 kts 282°
2026-04-24 14:29 23.88213 41.50922 31947 ft 451 kts 281°
2026-04-24 14:29 23.90061 41.44406 31943 ft 450 kts 281°
2026-04-24 14:30 23.91916 41.37860 31940 ft 449 kts 281°
2026-04-24 14:30 23.93758 41.31359 31938 ft 449 kts 281°
2026-04-24 14:31 23.95613 41.24817 31934 ft 448 kts 281°
2026-04-24 14:31 23.97455 41.18306 31931 ft 448 kts 281°
2026-04-24 14:32 23.99293 41.11799 31934 ft 448 kts 281°
2026-04-24 14:32 24.01124 41.05302 31929 ft 448 kts 281°
2026-04-24 14:33 24.02958 40.98787 31927 ft 449 kts 281°
2026-04-24 14:33 24.04792 40.92256 31929 ft 450 kts 281°
2026-04-24 14:34 24.06628 40.85709 31922 ft 450 kts 281°
2026-04-24 14:34 24.08464 40.79148 31923 ft 451 kts 281°
2026-04-24 14:35 24.10305 40.72562 31919 ft 452 kts 281°
2026-04-24 14:35 24.12145 40.65967 31915 ft 453 kts 281°
2026-04-24 14:36 24.13980 40.59374 31920 ft 453 kts 281°
2026-04-24 14:36 24.15856 40.52770 31911 ft 455 kts 284°
2026-04-24 14:37 24.18558 40.46489 31901 ft 461 kts 292°
2026-04-24 14:37 24.21572 40.40253 31901 ft 460 kts 292°
2026-04-24 14:38 24.24536 40.34065 31898 ft 460 kts 291°
2026-04-24 14:38 24.27500 40.27868 31887 ft 460 kts 292°
2026-04-24 14:39 24.30458 40.21675 31886 ft 459 kts 292°
2026-04-24 14:39 24.33424 40.15463 31885 ft 459 kts 291°
2026-04-24 14:40 24.36393 40.09234 31888 ft 459 kts 291°
2026-04-24 14:40 24.39342 40.03040 31887 ft 459 kts 291°
2026-04-24 14:41 24.42291 39.96839 31878 ft 459 kts 291°
2026-04-24 14:41 24.45239 39.90627 31877 ft 458 kts 291°
2026-04-24 14:42 24.48177 39.84433 31878 ft 458 kts 290°
2026-04-24 14:42 24.51103 39.78256 31869 ft 457 kts 290°
2026-04-24 14:43 24.54333 39.72223 31865 ft 465 kts 300°
2026-04-24 14:43 24.59015 39.67098 31866 ft 483 kts 315°
2026-04-24 14:44 24.64456 39.62811 31866 ft 483 kts 316°
2026-04-24 14:44 24.69879 39.58486 31876 ft 482 kts 315°
2026-04-24 14:45 24.75284 39.54160 31880 ft 481 kts 315°
2026-04-24 14:45 24.80700 39.49824 31884 ft 480 kts 315°
2026-04-24 14:46 24.86071 39.45524 31885 ft 476 kts 315°
2026-04-24 14:46 24.91417 39.41233 31885 ft 477 kts 315°
2026-04-24 14:47 24.96813 39.36896 31885 ft 477 kts 315°
2026-04-24 14:47 25.02177 39.32584 31886 ft 477 kts 314°
2026-04-24 14:48 25.07534 39.28274 31885 ft 478 kts 315°
2026-04-24 14:48 25.12913 39.23940 31878 ft 478 kts 314°
2026-04-24 14:49 25.18258 39.19618 31881 ft 477 kts 313°
2026-04-24 14:49 25.22974 39.14674 31880 ft 460 kts 301°
2026-04-24 14:50 25.26588 39.08975 31876 ft 451 kts 293°
2026-04-24 14:50 25.30005 39.03116 31862 ft 452 kts 294°
2026-04-24 14:51 25.33402 38.97319 31862 ft 452 kts 294°
2026-04-24 14:51 25.36819 38.91474 31863 ft 452 kts 294°
2026-04-24 14:52 25.40227 38.85631 31857 ft 452 kts 294°
2026-04-24 14:52 25.43626 38.79795 31860 ft 452 kts 294°
2026-04-24 14:53 25.47032 38.73940 31848 ft 451 kts 294°
2026-04-24 14:53 25.50425 38.68103 31843 ft 450 kts 294°
2026-04-24 14:54 25.53794 38.62302 31834 ft 450 kts 294°
2026-04-24 14:54 25.57173 38.56471 31834 ft 449 kts 294°
2026-04-24 14:55 25.59991 38.51602 31832 ft 449 kts 294°
2026-04-24 14:55 25.63918 38.44810 31829 ft 449 kts 294°
2026-04-24 14:56 25.67289 38.38974 31828 ft 449 kts 294°
2026-04-24 14:56 25.70641 38.33161 31814 ft 450 kts 294°
2026-04-24 14:57 25.74007 38.27317 31818 ft 449 kts 294°
2026-04-24 14:57 25.77380 38.21453 31821 ft 449 kts 294°
2026-04-24 14:58 25.80734 38.15613 31824 ft 448 kts 294°
2026-04-24 14:58 25.84067 38.09805 31832 ft 448 kts 294°
2026-04-24 14:59 25.87418 38.03956 31834 ft 449 kts 294°
2026-04-24 14:59 25.90773 37.98096 31836 ft 450 kts 294°
2026-04-24 15:00 25.94135 37.92222 31837 ft 449 kts 294°
2026-04-24 15:00 25.97493 37.86344 31850 ft 450 kts 294°
2026-04-24 15:01 26.00172 37.80195 31853 ft 437 kts 281°
2026-04-24 15:01 26.01495 37.73745 31866 ft 427 kts 272°
2026-04-24 15:02 26.02362 37.67186 31855 ft 430 kts 272°
2026-04-24 15:02 26.03256 37.60605 31855 ft 427 kts 272°
2026-04-24 15:03 26.03995 37.55183 31853 ft 427 kts 272°
2026-04-24 15:03 26.05027 37.47530 31847 ft 428 kts 272°
2026-04-24 15:04 26.05899 37.41016 31844 ft 428 kts 272°
2026-04-24 15:04 26.06771 37.34469 31841 ft 428 kts 272°
2026-04-24 15:05 26.07642 37.27924 31837 ft 428 kts 272°
2026-04-24 15:05 26.08515 37.21346 31834 ft 427 kts 272°
2026-04-24 15:06 26.09376 37.14832 31822 ft 427 kts 272°
2026-04-24 15:06 26.10237 37.08288 31818 ft 427 kts 272°
2026-04-24 15:07 26.11094 37.01773 31807 ft 427 kts 272°
2026-04-24 15:07 26.11950 36.95231 31803 ft 427 kts 272°
2026-04-24 15:08 26.12800 36.88708 31807 ft 427 kts 272°
2026-04-24 15:08 26.13652 36.82144 31796 ft 427 kts 272°
2026-04-24 15:09 26.14499 36.75601 31788 ft 427 kts 272°
2026-04-24 15:09 26.15340 36.69092 31784 ft 427 kts 272°
2026-04-24 15:10 26.16178 36.62558 31776 ft 427 kts 272°
2026-04-24 15:10 26.17020 36.55983 31770 ft 427 kts 272°
2026-04-24 15:11 26.18555 36.49582 31771 ft 440 kts 288°
2026-04-24 15:11 26.20108 36.46582 31772 ft 451 kts 297°
2026-04-24 15:11 26.22149 36.43893 31775 ft 461 kts 307°
2026-04-24 15:12 26.25900 36.39650 31781 ft 461 kts 306°
2026-04-24 15:12 26.32586 36.31963 31781 ft 461 kts 306°
2026-04-24 15:13 26.37057 36.26800 31790 ft 461 kts 306°
2026-04-24 15:13 26.42226 36.20824 31797 ft 461 kts 306°
2026-04-24 15:14 26.45939 36.16528 31798 ft 461 kts 306°
2026-04-24 15:14 26.50388 36.11374 31798 ft 461 kts 306°
2026-04-24 15:15 26.54848 36.06201 31793 ft 461 kts 306°
2026-04-24 15:15 26.59261 36.01076 31793 ft 460 kts 306°
2026-04-24 15:16 26.63705 35.95909 31790 ft 460 kts 306°
2026-04-24 15:16 26.68139 35.90746 31788 ft 460 kts 306°
2026-04-24 15:17 26.72573 35.85577 31785 ft 461 kts 306°
2026-04-24 15:17 26.77028 35.80378 31783 ft 461 kts 306°
2026-04-24 15:18 26.81430 35.75234 31784 ft 461 kts 306°
2026-04-24 15:18 26.85870 35.70040 31783 ft 461 kts 307°
2026-04-24 15:19 26.90325 35.64823 31779 ft 462 kts 307°
2026-04-24 15:19 26.94737 35.59649 31777 ft 462 kts 307°
2026-04-24 15:20 26.99196 35.54414 31777 ft 462 kts 307°
2026-04-24 15:20 27.03626 35.49207 31778 ft 463 kts 307°
2026-04-24 15:21 27.08055 35.43996 31775 ft 463 kts 307°
2026-04-24 15:21 27.12495 35.38765 31759 ft 464 kts 307°
2026-04-24 15:22 27.16969 35.33488 31762 ft 464 kts 308°
2026-04-24 15:23 27.23630 35.25619 31782 ft 464 kts 308°
2026-04-24 15:23 27.30307 35.17718 31762 ft 465 kts 308°
2026-04-24 15:25 27.40695 35.05395 31758 ft 465 kts 308°
2026-04-24 15:26 27.52627 34.91353 31758 ft 470 kts 311°
2026-04-24 15:27 27.59790 34.83825 32407 ft 468 kts 311°
2026-04-24 15:27 27.66863 34.76343 33059 ft 466 kts 311°
2026-04-24 15:28 27.76287 34.66353 33757 ft 462 kts 311°
2026-04-24 15:29 27.80970 34.61377 33764 ft 462 kts 311°
2026-04-24 15:31 27.97358 34.43925 33744 ft 463 kts 312°
2026-04-24 15:33 28.13873 34.21865 33769 ft 461 kts 306°
2026-04-24 15:34 28.23989 34.07813 33830 ft 461 kts 306°
2026-04-24 15:35 28.34092 33.93737 33815 ft 461 kts 306°
2026-04-24 15:36 28.38133 33.88093 33814 ft 462 kts 306°
2026-04-24 15:36 28.44210 33.79587 33802 ft 460 kts 306°
2026-04-24 15:37 28.48257 33.73919 33789 ft 461 kts 306°
2026-04-24 15:37 28.52294 33.68262 33807 ft 461 kts 306°
2026-04-24 15:38 28.56328 33.62596 33814 ft 461 kts 306°
2026-04-24 15:38 28.60355 33.56946 33811 ft 461 kts 306°
2026-04-24 15:39 28.64396 33.51268 33806 ft 461 kts 306°
2026-04-24 15:39 28.68421 33.45589 33806 ft 461 kts 306°
2026-04-24 15:40 28.72438 33.39913 33797 ft 462 kts 305°
2026-04-24 15:40 28.76480 33.34198 33788 ft 462 kts 305°
2026-04-24 15:41 28.80482 33.28531 33785 ft 462 kts 306°
2026-04-24 15:41 28.84529 33.22794 33780 ft 463 kts 306°
2026-04-24 15:42 28.88555 33.17076 33780 ft 463 kts 306°
2026-04-24 15:42 28.92585 33.11346 33780 ft 463 kts 306°
2026-04-24 15:43 28.96621 33.05600 33784 ft 463 kts 306°
2026-04-24 15:43 29.00645 32.99863 33790 ft 463 kts 306°
2026-04-24 15:44 29.04656 32.94135 33795 ft 462 kts 306°
2026-04-24 15:44 29.08658 32.88414 33799 ft 461 kts 306°
2026-04-24 15:45 29.12651 32.82696 33800 ft 460 kts 306°
2026-04-24 15:45 29.16636 32.76983 33800 ft 460 kts 306°
2026-04-24 15:46 29.20617 32.71271 33804 ft 459 kts 306°
2026-04-24 15:46 29.24582 32.65571 33808 ft 458 kts 306°
2026-04-24 15:47 29.28559 32.59849 33814 ft 458 kts 306°
2026-04-24 15:47 29.32520 32.54097 33817 ft 458 kts 305°
2026-04-24 15:48 29.36442 32.48376 33825 ft 458 kts 305°
2026-04-24 15:48 29.40364 32.42653 33827 ft 458 kts 305°
2026-04-24 15:49 29.44321 32.36873 33837 ft 458 kts 305°
2026-04-24 15:49 29.48230 32.31158 33835 ft 459 kts 304°
2026-04-24 15:50 29.52164 32.25395 33844 ft 459 kts 304°
2026-04-24 15:50 29.56106 32.19612 33863 ft 460 kts 304°
2026-04-24 15:51 29.60051 32.13817 33853 ft 461 kts 304°
2026-04-24 15:51 29.64021 32.07978 33857 ft 461 kts 304°
2026-04-24 15:52 29.67952 32.02187 33859 ft 462 kts 304°
2026-04-24 15:52 29.71888 31.96381 33866 ft 462 kts 304°
2026-04-24 15:53 29.75853 31.90523 33870 ft 462 kts 304°
2026-04-24 15:53 29.79796 31.84662 33868 ft 461 kts 303°
2026-04-24 15:54 29.83587 31.78732 33868 ft 461 kts 302°
2026-04-24 15:54 29.87366 31.72791 33867 ft 461 kts 302°
2026-04-24 15:55 29.91969 31.67593 33858 ft 473 kts 323°
2026-04-24 15:55 29.94886 31.65840 33856 ft 481 kts 334°
2026-04-24 15:55 29.98144 31.64743 33857 ft 488 kts 345°
2026-04-24 15:56 30.04880 31.63715 33860 ft 490 kts 349°
2026-04-24 15:56 30.11597 31.62699 33840 ft 489 kts 347°
2026-04-24 15:57 30.18343 31.61524 33847 ft 488 kts 347°
2026-04-24 15:57 30.25058 31.60313 33847 ft 487 kts 347°
2026-04-24 15:58 30.31716 31.59112 33854 ft 486 kts 347°
2026-04-24 15:58 30.38406 31.57905 33865 ft 485 kts 347°
2026-04-24 15:59 30.45059 31.56702 33856 ft 484 kts 347°
2026-04-24 15:59 30.51712 31.55497 33862 ft 484 kts 347°
2026-04-24 16:00 30.58371 31.54290 33859 ft 483 kts 347°
2026-04-24 16:00 30.65022 31.53083 33857 ft 483 kts 346°
2026-04-24 16:01 30.71680 31.51873 33866 ft 484 kts 346°
2026-04-24 16:01 30.78332 31.50663 33861 ft 484 kts 346°
2026-04-24 16:02 30.84939 31.49456 33865 ft 485 kts 346°
2026-04-24 16:02 30.91645 31.48229 33874 ft 486 kts 346°
2026-04-24 16:03 30.98341 31.47003 33881 ft 487 kts 346°
2026-04-24 16:03 31.05014 31.45780 33879 ft 488 kts 346°
2026-04-24 16:04 31.11748 31.44544 33887 ft 489 kts 346°
2026-04-24 16:04 31.18478 31.43308 33885 ft 490 kts 346°
2026-04-24 16:05 31.28588 31.41445 33892 ft 491 kts 346°
2026-04-24 16:06 31.38722 31.39565 33904 ft 492 kts 346°
2026-04-24 16:07 31.48826 31.37688 33910 ft 492 kts 346°
2026-04-24 16:07 31.59023 31.36074 33905 ft 495 kts 350°
2026-04-24 16:08 31.68122 31.35145 33914 ft 494 kts 350°
2026-04-24 16:09 31.78376 31.34078 33919 ft 493 kts 350°
2026-04-24 16:09 31.85211 31.33368 33911 ft 493 kts 349°
2026-04-24 16:11 32.02322 31.31560 34113 ft 494 kts 349°
2026-04-24 16:11 32.05714 31.31201 34291 ft 494 kts 349°
2026-04-24 16:11 32.09141 31.30837 34462 ft 493 kts 349°
2026-04-24 16:12 32.15969 31.30107 34814 ft 492 kts 349°
2026-04-24 16:12 32.19379 31.29742 34974 ft 492 kts 349°
2026-04-24 16:12 32.26182 31.29009 35298 ft 492 kts 349°
2026-04-24 16:13 32.29566 31.28645 35474 ft 491 kts 349°
2026-04-24 16:13 32.36359 31.27912 35801 ft 490 kts 349°
2026-04-24 16:14 32.43168 31.27177 35920 ft 489 kts 349°
2026-04-24 16:14 32.53309 31.26042 35919 ft 486 kts 346°
2026-04-24 16:15 32.62848 31.22669 35927 ft 471 kts 328°
2026-04-24 16:16 32.71593 31.17540 35926 ft 469 kts 327°
2026-04-24 16:17 32.86246 31.08978 35927 ft 468 kts 327°
2026-04-24 16:18 32.97896 31.02134 35927 ft 467 kts 327°
2026-04-24 16:19 33.06601 30.97007 35930 ft 467 kts 327°
2026-04-24 16:20 33.15135 30.91460 35928 ft 463 kts 323°
2026-04-24 16:20 33.23474 30.85719 35944 ft 462 kts 323°
2026-04-24 16:21 33.31825 30.79955 35928 ft 462 kts 323°
2026-04-24 16:22 33.37377 30.76113 35925 ft 462 kts 323°
2026-04-24 16:22 33.45716 30.70331 35940 ft 461 kts 323°
2026-04-24 16:23 33.51256 30.66483 35937 ft 461 kts 323°
2026-04-24 16:24 33.59571 30.60697 35939 ft 461 kts 323°
2026-04-24 16:24 33.65110 30.56835 35939 ft 460 kts 323°
2026-04-24 16:25 33.70626 30.52983 35940 ft 460 kts 323°
2026-04-24 16:25 33.76175 30.49103 35939 ft 460 kts 323°
2026-04-24 16:26 33.84459 30.43299 35939 ft 459 kts 323°
2026-04-24 16:27 33.92715 30.37503 35940 ft 459 kts 323°
2026-04-24 16:27 33.98222 30.33629 35938 ft 459 kts 323°
2026-04-24 16:28 34.03718 30.29758 35939 ft 458 kts 323°
2026-04-24 16:28 34.11973 30.23931 35941 ft 458 kts 323°
2026-04-24 16:29 34.17459 30.20051 35931 ft 458 kts 323°
2026-04-24 16:30 34.28429 30.12275 35930 ft 457 kts 323°
2026-04-24 16:30 34.33881 30.08401 35942 ft 456 kts 323°
2026-04-24 16:31 34.39375 30.04492 35942 ft 456 kts 323°
2026-04-24 16:31 34.44721 30.00429 35941 ft 450 kts 317°
2026-04-24 16:32 34.49361 29.95479 35943 ft 441 kts 307°
2026-04-24 16:32 34.53657 29.90148 35943 ft 442 kts 308°
2026-04-24 16:33 34.57978 29.84842 35945 ft 441 kts 308°
2026-04-24 16:33 34.62252 29.79571 35944 ft 441 kts 308°
2026-04-24 16:34 34.66558 29.74244 35945 ft 441 kts 308°
2026-04-24 16:34 34.70844 29.68934 35945 ft 440 kts 308°
2026-04-24 16:35 34.75122 29.63625 35940 ft 440 kts 308°
2026-04-24 16:35 34.79410 29.58296 35944 ft 440 kts 308°
2026-04-24 16:36 34.83651 29.53016 35945 ft 439 kts 308°
2026-04-24 16:36 34.87939 29.47670 35946 ft 439 kts 308°
2026-04-24 16:37 34.92190 29.42360 35942 ft 439 kts 308°
2026-04-24 16:37 34.96439 29.37046 35942 ft 438 kts 308°
2026-04-24 16:38 35.00906 29.31971 35941 ft 445 kts 315°
2026-04-24 16:38 35.05888 29.27466 35940 ft 446 kts 316°
2026-04-24 16:39 35.10848 29.22938 35942 ft 446 kts 316°
2026-04-24 16:39 35.15811 29.18397 35939 ft 446 kts 316°
2026-04-24 16:40 35.20765 29.13860 35942 ft 446 kts 316°
2026-04-24 16:40 35.25746 29.09293 35941 ft 446 kts 316°
2026-04-24 16:41 35.30681 29.04761 35938 ft 445 kts 316°
2026-04-24 16:41 35.35623 29.00215 35946 ft 445 kts 316°
2026-04-24 16:42 35.40590 28.95640 35938 ft 445 kts 316°
2026-04-24 16:42 35.45509 28.91101 35950 ft 444 kts 316°
2026-04-24 16:43 35.50435 28.86548 35956 ft 444 kts 316°
2026-04-24 16:43 35.55365 28.81985 35943 ft 444 kts 316°
2026-04-24 16:44 35.60285 28.77424 35937 ft 444 kts 316°
2026-04-24 16:44 35.65230 28.72833 35938 ft 443 kts 316°
2026-04-24 16:45 35.70133 28.68272 35936 ft 443 kts 316°
2026-04-24 16:45 35.75039 28.63703 35935 ft 443 kts 316°
2026-04-24 16:46 35.79932 28.59138 35931 ft 443 kts 316°
2026-04-24 16:46 35.84839 28.54552 35931 ft 443 kts 316°
2026-04-24 16:47 35.89750 28.49956 35932 ft 442 kts 316°
2026-04-24 16:47 35.94635 28.45377 35928 ft 442 kts 316°
2026-04-24 16:48 35.99530 28.40781 35931 ft 442 kts 316°
2026-04-24 16:48 36.04417 28.36184 35925 ft 441 kts 316°
2026-04-24 16:49 36.09291 28.31594 35924 ft 441 kts 316°
2026-04-24 16:49 36.14176 28.26985 35916 ft 441 kts 316°
2026-04-24 16:50 36.19020 28.22408 35915 ft 440 kts 316°
2026-04-24 16:50 36.23884 28.17805 35915 ft 440 kts 316°
2026-04-24 16:51 36.28768 28.13174 35916 ft 440 kts 316°
2026-04-24 16:51 36.33595 28.08568 35899 ft 438 kts 314°
2026-04-24 16:52 36.38045 28.03520 35901 ft 434 kts 311°
2026-04-24 16:52 36.42478 27.98412 35915 ft 434 kts 311°
2026-04-24 16:53 36.46902 27.93312 35910 ft 433 kts 311°
2026-04-24 16:53 36.51307 27.88216 35911 ft 433 kts 311°
2026-04-24 16:54 36.55710 27.83109 35909 ft 433 kts 311°
2026-04-24 16:54 36.60113 27.77995 35915 ft 433 kts 311°
2026-04-24 16:55 36.64501 27.72891 35911 ft 433 kts 310°
2026-04-24 16:55 36.68894 27.67770 35916 ft 432 kts 310°
2026-04-24 16:56 36.73282 27.62649 35920 ft 432 kts 311°
2026-04-24 16:56 36.77658 27.57534 35915 ft 432 kts 310°
2026-04-24 16:57 36.82022 27.52422 35916 ft 432 kts 310°
2026-04-24 16:57 36.86397 27.47288 35919 ft 432 kts 310°
2026-04-24 16:58 36.90771 27.42148 35919 ft 431 kts 310°
2026-04-24 16:58 36.95133 27.37014 35922 ft 431 kts 310°
2026-04-24 16:59 36.99487 27.31882 35924 ft 431 kts 310°
2026-04-24 17:00 37.06017 27.24169 35921 ft 430 kts 310°
2026-04-24 17:00 37.12545 27.16438 35930 ft 430 kts 310°
2026-04-24 17:01 37.19033 27.08735 35925 ft 429 kts 310°
2026-04-24 17:02 37.25517 27.01017 35928 ft 429 kts 310°
2026-04-24 17:02 37.29848 26.95851 35931 ft 429 kts 310°
2026-04-24 17:03 37.36355 26.88074 35922 ft 430 kts 310°
2026-04-24 17:04 37.40692 26.82890 35913 ft 432 kts 311°
2026-04-24 17:04 37.47552 26.75514 35937 ft 435 kts 313°
2026-04-24 17:05 37.52195 26.70557 35926 ft 435 kts 313°
2026-04-24 17:06 37.59078 26.63108 35929 ft 436 kts 313°
2026-04-24 17:06 37.65967 26.55627 35937 ft 436 kts 313°
2026-04-24 17:07 37.70560 26.50631 35947 ft 436 kts 313°
2026-04-24 17:08 37.79761 26.40626 35955 ft 437 kts 313°
2026-04-24 17:08 37.84350 26.35622 35953 ft 437 kts 313°
2026-04-24 17:09 37.93542 26.25551 35955 ft 437 kts 313°
2026-04-24 17:10 38.02715 26.15453 35950 ft 438 kts 313°
2026-04-24 17:12 38.20372 25.95917 35947 ft 441 kts 314°
2026-04-24 18:54 46.60553 12.15123 36121 ft 467 kts 300°
2026-04-24 18:55 46.65109 12.02655 36107 ft 465 kts 300°
2026-04-24 18:56 46.68146 11.94317 36087 ft 466 kts 299°
2026-04-24 18:56 46.71174 11.85968 36073 ft 466 kts 299°
2026-04-24 18:57 46.74179 11.77656 36065 ft 466 kts 299°
2026-04-24 18:57 46.77197 11.69287 36047 ft 465 kts 299°
2026-04-24 18:58 46.80199 11.60931 36045 ft 465 kts 299°
2026-04-24 18:58 46.83179 11.52615 36056 ft 464 kts 299°
2026-04-24 18:59 46.86178 11.44217 36074 ft 464 kts 298°
2026-04-24 18:59 46.89151 11.35867 36095 ft 464 kts 298°
2026-04-24 19:00 46.92119 11.27506 36115 ft 464 kts 298°
2026-04-24 19:00 46.95516 11.19516 36127 ft 462 kts 309°
2026-04-24 19:01 46.99797 11.12533 36131 ft 460 kts 314°
2026-04-24 19:01 47.04134 11.05650 36134 ft 460 kts 313°
2026-04-24 19:02 47.08458 10.98759 36131 ft 458 kts 313°
2026-04-24 19:02 47.12786 10.91854 36135 ft 459 kts 313°
2026-04-24 19:03 47.17083 10.84977 36130 ft 459 kts 313°
2026-04-24 19:03 47.21071 10.78582 36135 ft 460 kts 313°
2026-04-24 19:04 47.25382 10.71649 36137 ft 459 kts 313°
2026-04-24 19:04 47.29707 10.64678 36129 ft 460 kts 313°
2026-04-24 19:05 47.34000 10.57739 36130 ft 460 kts 312°
2026-04-24 19:05 47.38324 10.50736 36127 ft 460 kts 312°
2026-04-24 19:06 47.43092 10.44447 36136 ft 461 kts 322°
2026-04-24 19:06 47.48168 10.38655 36135 ft 462 kts 322°
2026-04-24 19:07 47.53237 10.32802 36140 ft 462 kts 321°
2026-04-24 19:07 47.57442 10.27940 36144 ft 462 kts 321°
2026-04-24 19:08 47.63341 10.21109 36144 ft 462 kts 321°
2026-04-24 19:08 47.68386 10.15252 36148 ft 461 kts 321°
2026-04-24 19:09 47.73196 10.09655 36144 ft 461 kts 321°
2026-04-24 19:09 47.78243 10.03768 36149 ft 461 kts 321°
2026-04-24 19:10 47.83293 9.97861 36148 ft 461 kts 321°
2026-04-24 19:10 47.88320 9.91967 36146 ft 461 kts 321°
2026-04-24 19:11 47.93374 9.86025 36151 ft 461 kts 320°
2026-04-24 19:11 47.98391 9.80113 36138 ft 461 kts 320°
2026-04-24 19:12 48.03401 9.74193 36140 ft 461 kts 320°
2026-04-24 19:12 48.08411 9.68240 36136 ft 460 kts 319°
2026-04-24 19:13 48.12301 9.62773 36134 ft 459 kts 314°
2026-04-24 19:13 48.17655 9.55016 36139 ft 459 kts 314°
2026-04-24 19:14 48.22244 9.48378 36144 ft 459 kts 314°
2026-04-24 19:14 48.26832 9.41706 36148 ft 459 kts 314°
2026-04-24 19:15 48.31406 9.35032 36149 ft 458 kts 314°
2026-04-24 19:15 48.35943 9.28391 36151 ft 458 kts 314°
2026-04-24 19:16 48.42814 9.18301 36152 ft 458 kts 314°
2026-04-24 19:16 48.47363 9.11601 36153 ft 458 kts 314°
2026-04-24 19:17 48.51901 9.04896 36150 ft 458 kts 313°
2026-04-24 19:17 48.56433 8.98183 36150 ft 457 kts 313°
2026-04-24 19:18 48.60973 8.91441 36146 ft 458 kts 313°
2026-04-24 19:18 48.65494 8.84708 36145 ft 457 kts 313°
2026-04-24 19:19 48.70025 8.77943 36148 ft 458 kts 313°
2026-04-24 19:19 48.74541 8.71184 36141 ft 458 kts 313°
2026-04-24 19:20 48.79090 8.64356 36142 ft 458 kts 313°
2026-04-24 19:20 48.83594 8.57577 36141 ft 457 kts 313°
2026-04-24 19:21 48.88113 8.50757 36136 ft 457 kts 313°
2026-04-24 19:21 48.92593 8.43978 36135 ft 457 kts 312°
2026-04-24 19:22 48.97100 8.37140 36134 ft 457 kts 312°
2026-04-24 19:22 49.01604 8.30288 36135 ft 457 kts 312°
2026-04-24 19:23 49.06097 8.23433 36136 ft 457 kts 312°
2026-04-24 19:23 49.10591 8.16560 36142 ft 457 kts 312°
2026-04-24 19:24 49.15079 8.09677 36140 ft 457 kts 312°
2026-04-24 19:24 49.19550 8.02802 36145 ft 457 kts 311°
2026-04-24 19:25 49.24011 7.95922 36151 ft 457 kts 311°
2026-04-24 19:25 49.28488 7.88999 36155 ft 457 kts 311°
2026-04-24 19:26 49.32960 7.82064 36152 ft 457 kts 311°
2026-04-24 19:26 49.37393 7.75171 36148 ft 457 kts 311°
2026-04-24 19:27 49.41862 7.68204 36146 ft 457 kts 311°
2026-04-24 19:27 49.46314 7.61245 36146 ft 457 kts 311°
2026-04-24 19:28 49.50755 7.54282 36147 ft 457 kts 311°
2026-04-24 19:28 49.55182 7.47322 36154 ft 456 kts 311°
2026-04-24 19:29 49.61853 7.36798 36166 ft 456 kts 311°
2026-04-24 19:30 49.66262 7.29818 36182 ft 456 kts 311°
2026-04-24 19:30 49.70709 7.22760 36186 ft 456 kts 311°
2026-04-24 19:31 49.75105 7.15763 36185 ft 456 kts 310°
2026-04-24 19:31 49.79538 7.08686 36184 ft 456 kts 310°
2026-04-24 19:32 49.83941 7.01638 36183 ft 456 kts 310°
2026-04-24 19:32 49.88312 6.94622 36181 ft 455 kts 310°
2026-04-24 19:33 49.92712 6.87539 36183 ft 455 kts 310°
2026-04-24 19:33 49.97108 6.80442 36187 ft 455 kts 310°
2026-04-24 19:34 50.01482 6.73363 36186 ft 455 kts 310°
2026-04-24 19:34 50.05871 6.66240 36185 ft 455 kts 310°
2026-04-24 19:35 50.10221 6.59159 36183 ft 454 kts 310°
2026-04-24 19:35 50.14588 6.52037 36182 ft 454 kts 310°
2026-04-24 19:36 50.18731 6.44672 36180 ft 450 kts 303°
2026-04-24 19:36 50.22116 6.36550 36183 ft 447 kts 298°
2026-04-24 19:37 50.25386 6.28257 36202 ft 448 kts 298°
2026-04-24 19:37 50.28656 6.19984 36203 ft 448 kts 298°
2026-04-24 19:38 50.31913 6.11680 36191 ft 448 kts 298°
2026-04-24 19:38 50.35167 6.03342 36191 ft 448 kts 298°
2026-04-24 19:39 50.38402 5.95027 36225 ft 448 kts 298°
2026-04-24 19:39 50.41646 5.86663 36222 ft 448 kts 298°
2026-04-24 19:40 50.44883 5.78289 36201 ft 448 kts 298°
2026-04-24 19:40 50.48092 5.69960 36202 ft 448 kts 298°
2026-04-24 19:41 50.51304 5.61598 36223 ft 448 kts 298°
2026-04-24 19:41 50.54468 5.53331 36227 ft 448 kts 298°
2026-04-24 19:42 50.57700 5.44863 36201 ft 448 kts 298°
2026-04-24 19:42 50.60892 5.36471 36206 ft 448 kts 298°
2026-04-24 19:43 50.63944 5.27948 36213 ft 447 kts 296°
2026-04-24 19:43 50.66888 5.19255 36207 ft 448 kts 296°
2026-04-24 19:44 50.69341 5.12075 36213 ft 448 kts 296°
2026-04-24 19:44 50.72279 5.03502 36217 ft 448 kts 296°
2026-04-24 19:45 50.75233 4.94862 36225 ft 447 kts 296°
2026-04-24 19:45 50.78194 4.86171 36229 ft 447 kts 296°
2026-04-24 19:46 50.81127 4.77532 36234 ft 447 kts 296°
2026-04-24 19:46 50.84073 4.68824 36238 ft 446 kts 296°
2026-04-24 19:47 50.86991 4.60168 36250 ft 446 kts 296°
2026-04-24 19:47 50.89884 4.51556 36243 ft 445 kts 296°
2026-04-24 19:48 50.92777 4.42915 36243 ft 444 kts 296°
2026-04-24 19:48 50.97104 4.29936 36245 ft 443 kts 296°
2026-04-24 19:49 51.02832 4.12647 36235 ft 442 kts 296°
2026-04-24 19:50 51.08533 3.95319 36235 ft 441 kts 296°
2026-04-24 19:51 51.12785 3.82319 36235 ft 441 kts 295°
2026-04-24 19:52 51.17013 3.69323 36246 ft 440 kts 295°
2026-04-24 19:52 51.19818 3.60666 36250 ft 440 kts 295°
2026-04-24 19:53 51.22614 3.52003 36246 ft 440 kts 295°
2026-04-24 19:54 51.26789 3.39013 36257 ft 439 kts 295°
2026-04-24 19:54 51.29560 3.30354 36258 ft 438 kts 295°
2026-04-24 19:55 51.31867 3.23123 36262 ft 438 kts 295°
2026-04-24 19:55 51.35086 3.12995 36265 ft 437 kts 295°
2026-04-24 19:56 51.37832 3.04321 36265 ft 437 kts 295°
2026-04-24 19:56 51.40565 2.95659 36264 ft 437 kts 295°
2026-04-24 19:57 51.43299 2.86965 36266 ft 436 kts 295°
2026-04-24 19:57 51.46019 2.78283 36265 ft 436 kts 295°
2026-04-24 19:58 51.48741 2.69562 36093 ft 433 kts 295°
2026-04-24 19:58 51.50086 2.65244 35760 ft 432 kts 295°
2026-04-24 19:58 51.51412 2.60980 35197 ft 432 kts 295°
2026-04-24 19:58 51.52759 2.56641 34479 ft 434 kts 294°
2026-04-24 19:59 51.54113 2.52268 33645 ft 434 kts 294°
2026-04-24 19:59 51.55310 2.47868 32673 ft 434 kts 289°
2026-04-24 19:59 51.56335 2.43273 31663 ft 436 kts 288°
2026-04-24 19:59 51.57365 2.38723 30890 ft 435 kts 289°
2026-04-24 20:00 51.58409 2.34171 30300 ft 431 kts 289°
2026-04-24 20:00 51.59436 2.29699 29641 ft 426 kts 289°
2026-04-24 20:00 51.60457 2.25235 28985 ft 421 kts 289°
2026-04-24 20:00 51.61466 2.20807 28321 ft 416 kts 289°
2026-04-24 20:01 51.62443 2.16496 27710 ft 412 kts 288°
2026-04-24 20:01 51.63426 2.12151 27075 ft 408 kts 288°
2026-04-24 20:01 51.64386 2.07892 26449 ft 404 kts 288°
2026-04-24 20:01 51.65327 2.03701 25832 ft 400 kts 288°
2026-04-24 20:02 51.65955 2.00899 25452 ft 397 kts 288°
2026-04-24 20:02 51.67188 1.95385 25226 ft 387 kts 288°
2026-04-24 20:02 51.68114 1.91229 25274 ft 398 kts 288°
2026-04-24 20:02 51.69044 1.87049 25276 ft 397 kts 288°
2026-04-24 20:03 51.69980 1.82840 25271 ft 396 kts 288°
2026-04-24 20:03 51.70899 1.78695 25270 ft 397 kts 288°
2026-04-24 20:03 51.71830 1.74491 25272 ft 396 kts 288°
2026-04-24 20:03 51.72758 1.70292 25269 ft 396 kts 288°
2026-04-24 20:04 51.73657 1.66085 25258 ft 396 kts 285°
2026-04-24 20:04 51.74244 1.61786 25056 ft 394 kts 277°
2026-04-24 20:04 51.74445 1.57372 24770 ft 392 kts 270°
2026-04-24 20:04 51.74281 1.53006 24169 ft 394 kts 263°
2026-04-24 20:05 51.73964 1.48611 23488 ft 391 kts 264°
2026-04-24 20:05 51.73677 1.44318 22966 ft 383 kts 264°
2026-04-24 20:05 51.73399 1.40047 22443 ft 382 kts 264°
2026-04-24 20:05 51.73124 1.35798 21891 ft 384 kts 264°
2026-04-24 20:06 51.72844 1.31490 21330 ft 384 kts 264°
2026-04-24 20:06 51.72565 1.27246 20795 ft 382 kts 264°
2026-04-24 20:06 51.72282 1.22965 20235 ft 381 kts 264°
2026-04-24 20:06 51.72001 1.18751 19712 ft 382 kts 264°
2026-04-24 20:07 51.71811 1.15905 19343 ft 382 kts 264°
2026-04-24 20:07 51.71427 1.10210 18617 ft 382 kts 263°
2026-04-24 20:07 51.71142 1.06000 18021 ft 379 kts 263°
2026-04-24 20:07 51.70853 1.01782 17440 ft 373 kts 263°
2026-04-24 20:08 51.70570 0.97667 16724 ft 371 kts 263°
2026-04-24 20:08 51.70287 0.93555 16407 ft 364 kts 263°
2026-04-24 20:08 51.70004 0.89481 16299 ft 371 kts 263°
2026-04-24 20:08 51.69714 0.85313 16288 ft 371 kts 263°
2026-04-24 20:09 51.69427 0.81213 16248 ft 370 kts 263°
2026-04-24 20:09 51.69140 0.77131 15748 ft 371 kts 263°
2026-04-24 20:09 51.68844 0.72942 14840 ft 378 kts 263°
2026-04-24 20:09 51.68539 0.68671 13779 ft 383 kts 263°
2026-04-24 20:10 51.68237 0.64458 12992 ft 378 kts 263°
2026-04-24 20:10 51.67942 0.60354 12560 ft 354 kts 263°
2026-04-24 20:10 51.67667 0.56536 12342 ft 342 kts 263°
2026-04-24 20:10 51.67395 0.52782 12211 ft 326 kts 263°
2026-04-24 20:11 51.67138 0.49254 12052 ft 309 kts 263°
2026-04-24 20:11 51.66891 0.45867 11726 ft 298 kts 263°
2026-04-24 20:11 51.66649 0.42582 11201 ft 296 kts 263°
2026-04-24 20:11 51.66408 0.39323 10664 ft 294 kts 263°
2026-04-24 20:12 51.66157 0.35932 10117 ft 291 kts 264°
2026-04-24 20:12 51.65929 0.32871 9559 ft 288 kts 264°
2026-04-24 20:12 51.65698 0.29733 9329 ft 278 kts 263°
2026-04-24 20:12 51.65462 0.26557 9271 ft 285 kts 263°
2026-04-24 20:13 51.65229 0.23452 9263 ft 284 kts 263°
2026-04-24 20:13 51.64989 0.20253 9270 ft 285 kts 263°
2026-04-24 20:13 51.64749 0.17093 9264 ft 285 kts 263°
2026-04-24 20:13 51.64512 0.13946 9266 ft 285 kts 264°
2026-04-24 20:14 51.64317 0.10745 9265 ft 285 kts 265°
2026-04-24 20:14 51.64159 0.07578 9265 ft 285 kts 266°
2026-04-24 20:14 51.64012 0.04377 9266 ft 285 kts 266°
2026-04-24 20:14 51.63864 0.01189 9262 ft 285 kts 266°
2026-04-24 20:15 51.63717 -0.01974 9263 ft 285 kts 266°
2026-04-24 20:15 51.63570 -0.05130 9267 ft 285 kts 266°
2026-04-24 20:15 51.63422 -0.08318 9286 ft 285 kts 266°
2026-04-24 20:15 51.63273 -0.11519 9288 ft 285 kts 266°
2026-04-24 20:16 51.63128 -0.14652 9291 ft 285 kts 266°
2026-04-24 20:16 51.62980 -0.17862 9290 ft 285 kts 266°
2026-04-24 20:16 51.62831 -0.21069 9284 ft 285 kts 266°
2026-04-24 20:16 51.62685 -0.24211 9069 ft 284 kts 266°
2026-04-24 20:17 51.62539 -0.27391 8636 ft 282 kts 266°
2026-04-24 20:17 51.62252 -0.33689 8266 ft 282 kts 266°
2026-04-24 20:17 51.62110 -0.36808 8265 ft 282 kts 266°
2026-04-24 20:18 51.62015 -0.38897 8267 ft 283 kts 266°
2026-04-24 20:18 51.61825 -0.43102 8212 ft 280 kts 266°
2026-04-24 20:18 51.61684 -0.46206 7896 ft 279 kts 266°
2026-04-24 20:18 51.61543 -0.49337 7475 ft 277 kts 266°
2026-04-24 20:19 51.61405 -0.52432 7311 ft 279 kts 266°
2026-04-24 20:19 51.61267 -0.55533 7267 ft 279 kts 266°
2026-04-24 20:19 51.61128 -0.58660 7260 ft 279 kts 265°
2026-04-24 20:19 51.60990 -0.61757 7267 ft 279 kts 265°
2026-04-24 20:20 51.60852 -0.64876 7251 ft 279 kts 265°
2026-04-24 20:20 51.60715 -0.67977 7255 ft 278 kts 265°
2026-04-24 20:20 51.60577 -0.71083 7031 ft 277 kts 265°
2026-04-24 20:20 51.60444 -0.74150 6606 ft 275 kts 265°
2026-04-24 20:21 51.60314 -0.77200 6012 ft 273 kts 265°
2026-04-24 20:21 51.60168 -0.80190 5752 ft 258 kts 260°
2026-04-24 20:21 51.59519 -0.82742 5598 ft 238 kts 232°
2026-04-24 20:21 51.58319 -0.84344 5446 ft 220 kts 202°
2026-04-24 20:22 51.56879 -0.84773 5353 ft 203 kts 180°
2026-04-24 20:22 51.55495 -0.84844 5229 ft 194 kts 180°
2026-04-24 20:22 51.54165 -0.84916 5009 ft 192 kts 180°
2026-04-24 20:22 51.52834 -0.84992 4756 ft 189 kts 180°
2026-04-24 20:23 51.51535 -0.85071 4427 ft 189 kts 180°
2026-04-24 20:23 51.50210 -0.85161 4118 ft 190 kts 180°
2026-04-24 20:23 51.48898 -0.85231 3814 ft 188 kts 176°
2026-04-24 20:23 51.47609 -0.84908 3493 ft 186 kts 160°
2026-04-24 20:24 51.46900 -0.84200 3357 ft 176 kts 130°
2026-04-24 20:24 51.46583 -0.81816 3273 ft 161 kts 75°
2026-04-24 20:24 51.46921 -0.80129 3200 ft 161 kts 71°
2026-04-24 20:24 51.47269 -0.78439 3123 ft 158 kts 72°
2026-04-24 20:25 51.47545 -0.76749 3045 ft 156 kts 80°
2026-04-24 20:25 51.47661 -0.74984 2983 ft 160 kts 87°
2026-04-24 20:25 51.47667 -0.73243 2911 ft 156 kts 91°
2026-04-24 20:25 51.47665 -0.71489 2837 ft 156 kts 89°
2026-04-24 20:26 51.47676 -0.69743 2687 ft 157 kts 90°
2026-04-24 20:26 51.47678 -0.68040 2501 ft 152 kts 89°
2026-04-24 20:26 51.47687 -0.66296 2305 ft 154 kts 90°
2026-04-24 20:26 51.47691 -0.64578 2125 ft 156 kts 89°
2026-04-24 20:27 51.47698 -0.62901 1908 ft 144 kts 89°
2026-04-24 20:27 51.47703 -0.61349 1729 ft 139 kts 90°
2026-04-24 20:27 51.47708 -0.59790 1514 ft 135 kts 89°
2026-04-24 20:27 51.47719 -0.58278 1303 ft 134 kts 89°
2026-04-24 20:28 51.47728 -0.56763 1096 ft 136 kts 90°
2026-04-24 20:28 51.47689 -0.55257 941 ft 138 kts 92°
2026-04-24 20:28 51.47682 -0.53731 682 ft 132 kts 89°
2026-04-24 20:28 51.47698 -0.52228 557 ft 137 kts 89°
2026-04-24 20:29 51.47724 -0.51220 431 ft 133 kts 87°
2026-04-24 20:29 51.47737 -0.49256 221 ft 138 kts 90°
2026-04-24 20:29 51.47745 -0.47758 94 ft 127 kts 90°
2026-04-24 20:29 51.47748 -0.46616 95 ft 82 kts 89°
2026-04-24 20:30 51.47754 -0.45884 94 ft 59 kts 89°
2026-04-24 20:30 51.47753 -0.45554 93 ft 21 kts 101°
2026-04-24 20:30 51.47667 -0.45471 94 ft 0 kts 174°
2026-04-24 20:31 51.47656 -0.45470 93 ft 6 kts 176°
2026-04-24 20:31 51.47611 -0.45491 94 ft 6 kts 226°
2026-04-24 20:31 51.47597 -0.45566 96 ft 8 kts 258°
2026-04-24 20:31 51.47590 -0.45665 95 ft 10 kts 276°
2026-04-24 20:32 51.47592 -0.45786 92 ft 12 kts 271°
2026-04-24 20:32 51.47594 -0.45930 96 ft 14 kts 271°
2026-04-24 20:32 51.47594 -0.46014 96 ft 5 kts 269°
2026-04-24 20:32 51.47594 -0.46079 96 ft 7 kts 269°
2026-04-24 20:33 51.47592 -0.46171 93 ft 9 kts 269°
2026-04-24 20:33 51.47591 -0.46286 93 ft 12 kts 269°
2026-04-24 20:33 51.47589 -0.46428 93 ft 14 kts 269°
2026-04-24 20:33 51.47588 -0.46593 94 ft 16 kts 270°
2026-04-24 20:34 51.47589 -0.46774 93 ft 17 kts 270°
2026-04-24 20:34 51.47575 -0.46884 95 ft 0 kts 249°
2026-04-24 20:34 51.47569 -0.46894 95 ft 2 kts 232°
2026-04-24 20:35 51.47559 -0.46907 97 ft 4 kts 221°
2026-04-24 20:35 51.47492 -0.46913 94 ft 11 kts 169°
2026-04-24 20:35 51.47440 -0.46895 95 ft 12 kts 167°
2026-04-24 20:35 51.47350 -0.46868 94 ft 14 kts 174°
2026-04-24 20:36 51.47255 -0.46854 95 ft 13 kts 160°
2026-04-24 20:36 51.47239 -0.46754 94 ft 9 kts 91°
2026-04-24 20:36 51.47238 -0.46641 93 ft 11 kts 91°
2026-04-24 20:36 51.47238 -0.46509 93 ft 13 kts 89°
2026-04-24 20:37 51.47200 -0.46389 97 ft 13 kts 135°
2026-04-24 20:37 51.47130 -0.46348 96 ft 4 kts 208°
2026-04-24 20:37 51.47106 -0.46396 95 ft 0 kts 232°
2026-04-24 20:37 51.47102 -0.46405 95 ft 2 kts 233°
2026-04-24 20:38 51.47097 -0.46416 97 ft 0 kts 234°
2026-04-24 20:38 51.47093 -0.46424 97 ft 1 kts 234°
2026-04-24 20:38 51.47091 -0.46429 94 ft 0 kts 234°